Погода в Аринсале

Андорра     42°37′04″N   1°32′20″E
темп.,
°C
ветер,
м/с
пор.,
м/с
влажн.,
%
обл.,
%
осадки,
мм/ч
давл.,
гПа
погр.,
м
23 января, сб
сб2301:00−8ссз229253 0.7 100922
04:00−8с229151 0.1 101022
07:00−10сз119534 0.3 100623
10:00−5з118778 0.0 100864
13:00−3з259491 1.0 1006632
16:00−3юз349894 0.1 1004303
19:00−3ююз359997 0.4 1003271
22:00−6ю2399100 0.0 100464
24 января, вс
вс2401:00−4ю1298100 1.2 100281
04:00−4ссз2298100 1.4 100098
07:00−6с479167 4.1 1006342
10:00−5с358926 0.1 1008272
13:00−2сз247821 0.1 1008816
16:00−1ссз23868 0.0 1008525
19:00−6св229140 0.0 100926
22:00−6ссв128895 0.0 100921
25 января, пн
пн2501:00−7с3392100 1.0 101477
04:00−5ссз1280100 0.0 100821
07:00−9ссв349270 0.1 101779
10:00−7ссв238828 0.0 1019122
13:00+1с239278 0.0 1009452
16:000с349191 0.1 1010423
19:00−6с239398 0.2 102043
22:00−7с338932 0.0 102236
26 января, вт
вт2601:00−6с337340 0.0 101838
04:00−6ссв336940 0.0 101934
07:00−6ссв337116 0.0 102226
10:00−2ссв227674 0.0 102336
13:00+2зсз128728 0.0 1021255
16:00+2с129399 0.0 1020148
19:00−1ссв239159 0.1 102141
22:00+2ссв239694 0.1 102255
27 января, ср
ср2701:00+2с359897 0.4 1023129
04:00+1с3494100 0.1 1021146
07:000ссв349391 0.1 102391
10:00+1ссв338573 0.0 102584
13:00+4ссв1295100 0.0 1023105
16:00+3с2398100 0.3 1022116
19:00−1ссв336296 0.0 102429
22:000ссв3462100 0.0 102434